{"data":{"norad_id":67713,"intl_designator":"2026-025W","name":"STARLINK-36708","alt_names":[],"object_type":"PAYLOAD","status":"ACTIVE","operator":null,"country":"US","launch_date":"2026-02-07","launch_site_code":"AFWTR","launch_vehicle":null,"mission":null,"orbit_class":"UNKNOWN","rcs_meters":null,"size_class":null,"mass_kg":null,"dimensions":null,"purposes":["comms"],"wikipedia_slug":null,"has_3d_model":false,"image_url":null,"decayed_at":null,"tle_current":{"epoch":"2026-05-24T21:11:00.997152Z","epoch_age_seconds":88677,"freshness":"FRESH","line1":"1 67713U 26025W   26144.88265043  .00021435  00000+0  66418-3 0  9994","line2":"2 67713  97.2844 255.6514 0000486 102.8412 257.2885 15.33455599 17637","mean_motion":15.33455599,"eccentricity":4.86e-5,"inclination_deg":97.2844,"raan_deg":255.6514,"arg_perigee_deg":102.8412,"mean_anomaly_deg":257.2885,"bstar":0.00066418,"rev_number":1763,"period_min":93.905555592158,"perigee_km":465.17903816892,"apogee_km":465.84424081668,"semimajor_km":6843.6486394928,"source":"CELESTRAK","updated_at":"2026-05-25T13:38:21.683634Z"}}}